KC3BAN-3 Weather Reports


Display with metric or nautical units.
time (UTC)temp
F
wind
direction
speed
MPH
gust
MPH
rain 1hr
in
rain 24hr
in
rain mn
in
humidity
%
barometer
mb
20260503200805 58 157 6.0 9.0 0.00 0.01 0.00 64 1016.6
20260503200304 58 129 5.0 8.0 0.00 0.02 0.00 64 1016.8
20260503195803 59 135 5.0 8.0 0.00 0.02 0.00 65 1016.9
20260503195257 59 97 5.0 8.0 0.00 0.02 0.00 66 1017.0
20260503194752 59 94 5.0 8.0 0.00 0.02 0.00 63 1017.1
20260503194246 59 155 5.0 7.0 0.00 0.02 0.00 65 1017.0
20260503193741 60 167 5.0 8.0 0.00 0.02 0.00 63 1017.0
20260503193234 61 111 4.0 10.0 0.00 0.02 0.00 60 1017.1
20260503192943 62 208 3.0 10.0 0.00 0.02 0.00 50 1017.1
20260503192231 62 277 5.0 11.0 0.00 0.02 0.00 49 1017.0
20260503191731 61 314 6.0 11.0 0.00 0.02 0.00 52 1016.9
20260503191235 61 305 6.0 10.0 0.00 0.02 0.00 49 1017.0
20260503190734 61 307 7.0 11.0 0.00 0.02 0.00 49 1017.1
20260503190233 61 278 6.0 11.0 0.00 0.02 0.00 49 1017.1
20260503185946 61 330 5.0 13.0 0.00 0.02 0.00 50 1017.1
20260503185230 61 311 7.0 13.0 0.00 0.02 0.00 49 1017.2
20260503184731 61 302 7.0 13.0 0.00 0.02 0.00 48 1017.3
20260503184230 61 268 6.0 13.0 0.00 0.02 0.00 49 1017.2
20260503183732 61 324 7.0 12.0 0.00 0.02 0.00 51 1017.3
20260503183231 60 314 9.0 16.0 0.00 0.02 0.00 49 1017.3
20260503182944 61 311 8.0 16.0 0.00 0.02 0.00 49 1017.3
20260503182232 61 275 8.0 14.0 0.00 0.02 0.00 50 1017.3
20260503181731 60 313 7.0 12.0 0.00 0.02 0.00 48 1017.3
20260503181443 61 354 7.0 13.0 0.00 0.02 0.00 49 1017.4
20260503180955 61 311 7.0 13.0 0.00 0.02 0.00 47 1017.4
20260503180731 61 311 7.0 13.0 0.00 0.02 0.00 47 1017.4
20260503180231 61 320 7.0 14.0 0.00 0.02 0.00 48 1017.4
20260503175731 61 274 8.0 14.0 0.00 0.02 0.00 47 1017.2
20260503175444 60 328 9.0 13.0 0.00 0.02 0.00 51 1017.3
20260503174953 60 279 9.0 16.0 0.00 0.02 0.00 47 1017.3
20260503174445 60 313 8.0 16.0 0.00 0.03 0.00 48 1017.3
20260503173944 60 326 7.0 13.0 0.00 0.03 0.00 48 1017.3
20260503173447 60 315 7.0 14.0 0.00 0.03 0.00 50 1017.4
20260503172944 61 288 8.0 14.0 0.00 0.03 0.00 50 1017.4
20260503172231 60 319 8.0 14.0 0.00 0.03 0.00 50 1017.4
20260503171731 60 316 6.0 14.0 0.00 0.03 0.00 49 1017.4
20260503171232 60 319 6.0 13.0 0.00 0.03 0.00 50 1017.4
20260503170731 59 313 7.0 13.0 0.00 0.03 0.00 51 1017.5
20260503170231 59 308 7.0 14.0 0.00 0.03 0.00 48 1017.5
20260503150718 57 338 10.0 17.0 0.00 0.06 0.00 54 1017.5
20260503150212 57 28 11.0 18.0 0.00 0.06 0.00 55 1017.5
20260503131155 55 322 9.0 14.0 0.00 0.07 0.00 60 1017.0
20260503130908 55 342 10.0 21.0 0.00 0.08 0.00 62 1017.1
20260503130156 55 46 10.0 21.0 0.00 0.08 0.00 67 1016.9
20260503120152 55 312 10.0 20.0 0.00 0.09 0.00 67 1016.0
20260503110648 52 352 4.0 7.0 0.00 0.13 0.00 79 1015.3
20260503110148 52 335 4.0 7.0 0.00 0.13 0.00 80 1015.3
20260503100144 52 330 5.0 9.0 0.00 0.22 0.00 77 1014.2
20260503090136 52 346 6.0 11.0 0.00 0.32 0.00 76 1013.7
20260503081132 53 332 8.0 14.0 0.00 0.39 0.00 74 1013.2
20260503080846 53 1 7.0 14.0 0.00 0.39 0.00 75 1013.2
20260503080134 53 308 7.0 13.0 0.00 0.39 0.00 75 1013.1
20260503072844 52 313 7.0 14.0 0.00 0.39 0.00 75 1012.6
20260503072130 53 319 7.0 13.0 0.00 0.39 0.00 76 1012.5
20260503071631 53 304 7.0 16.0 0.00 0.39 0.00 76 1012.4
20260503071344 53 338 7.0 16.0 0.00 0.39 0.00 76 1012.3
20260503070633 53 328 6.0 13.0 0.00 0.39 0.00 75 1012.3
20260503070133 53 320 7.0 13.0 0.00 0.39 0.00 75 1012.1
20260503060106 54 328 6.0 11.0 0.00 0.39 0.00 76 1011.5
20260503055104 54 350 5.0 10.0 0.00 0.39 0.00 77 1011.6
20260503054601 54 306 5.0 9.0 0.00 0.39 0.00 77 1011.7
20260503054101 54 311 5.0 9.0 0.00 0.39 0.00 77 1011.7
20260503053814 54 300 5.0 9.0 0.00 0.39 0.00 78 1011.7
20260503053101 54 343 5.0 10.0 0.00 0.39 0.00 78 1011.7
20260503052602 55 302 5.0 10.0 0.00 0.39 0.00 77 1011.7
20260503052102 55 323 5.0 10.0 0.00 0.39 0.00 77 1011.6
20260503051816 55 321 4.0 9.0 0.00 0.39 0.00 77 1012.0
20260503051101 55 322 4.0 9.0 0.00 0.39 0.00 77 1011.8
20260503050602 55 336 4.0 9.0 0.00 0.39 0.00 77 1011.8
20260503050104 55 315 4.0 9.0 0.00 0.39 0.00 77 1011.9
20260503045813 55 311 4.0 8.0 0.00 0.39 0.00 77 1011.9
20260503045057 55 324 4.0 8.0 0.00 0.39 0.00 77 1011.8
20260503044552 55 341 4.0 7.0 0.00 0.39 0.00 77 1011.7
20260503044044 55 334 4.0 9.0 0.00 0.42 0.00 76 1012.0
20260503043538 55 9 4.0 9.0 0.00 0.43 0.00 76 1011.8
20260503043033 55 325 4.0 7.0 0.00 0.43 0.00 75 1012.0
20260503042534 55 335 5.0 12.0 0.00 0.43 0.00 73 1011.9
20260503042034 55 292 6.0 12.0 0.00 0.43 0.00 72 1012.0
20260503041746 55 350 6.0 12.0 0.00 0.49 0.00 71 1012.1
20260503041034 55 9 6.0 12.0 0.00 0.50 0.00 70 1012.0
20260503040534 55 303 6.0 10.0 0.00 0.51 0.00 70 1011.8
20260503040032 55 323 5.0 11.0 0.00 0.53 0.00 70 1011.8
20260503035748 55 347 6.0 15.0 0.00 0.53 0.53 70 1011.8
20260503035032 56 20 9.0 15.0 0.00 0.54 0.53 72 1011.7
20260503034743 56 354 11.0 18.0 0.00 0.55 0.53 75 1011.7
20260503034031 56 344 12.0 18.0 0.00 0.55 0.53 72 1011.8
20260503033531 56 18 12.0 18.0 0.00 0.55 0.53 72 1011.8
20260503033031 56 41 10.0 16.0 0.00 0.55 0.53 78 1011.6
20260503032531 56 47 10.0 14.0 0.00 0.55 0.53 78 1011.7
20260503032031 56 48 10.0 13.0 0.00 0.55 0.53 76 1011.9
20260503031531 56 34 10.0 14.0 0.00 0.55 0.53 75 1012.0
20260503031032 56 44 11.0 15.0 0.00 0.55 0.53 75 1012.0
20260503030529 56 53 12.0 18.0 0.00 0.55 0.53 74 1012.0
20260503030029 56 60 13.0 18.0 0.00 0.55 0.53 72 1011.7
20260503025529 56 52 13.0 17.0 0.00 0.55 0.53 74 1011.8
20260503025030 55 23 12.0 17.0 0.00 0.56 0.53 74 1011.9
20260503024529 55 33 13.0 17.0 0.00 0.56 0.53 77 1012.0
20260503024031 55 56 12.0 18.0 0.00 0.56 0.53 74 1011.9
20260503023529 55 37 12.0 18.0 0.00 0.56 0.53 76 1012.0
20260503023029 55 34 12.0 18.0 0.00 0.56 0.53 75 1011.8
20260503022529 55 59 13.0 18.0 0.00 0.57 0.53 77 1011.9
20260503022030 55 42 13.0 18.0 0.00 0.57 0.53 77 1011.8
20260503021742 56 1 12.0 18.0 0.00 0.58 0.53 77 1011.7
20260503021029 56 11 12.0 18.0 0.00 0.59 0.53 78 1011.7
20260503020529 56 24 12.0 17.0 0.00 0.59 0.53 78 1011.8
20260503020030 56 51 13.0 17.0 0.00 0.59 0.53 79 1011.8
20260503015528 56 44 12.0 16.0 0.00 0.59 0.53 80 1011.7
20260503015030 56 42 12.0 16.0 0.00 0.59 0.53 80 1011.8
20260503014529 56 70 12.0 17.0 0.00 0.59 0.53 82 1011.9
20260503014025 56 25 12.0 17.0 0.00 0.59 0.53 82 1011.8
20260503013521 55 50 12.0 17.0 0.00 0.59 0.53 82 1012.0
20260503013014 56 37 12.0 17.0 0.00 0.60 0.53 82 1011.8
20260503012507 55 39 12.0 17.0 0.00 0.60 0.53 82 1011.6
20260503012004 56 23 11.0 17.0 0.00 0.60 0.53 82 1011.8
20260503011504 56 62 12.0 18.0 0.00 0.60 0.53 83 1011.6
20260503011007 55 20 12.0 18.0 0.00 0.60 0.53 82 1011.4
20260503010507 55 352 12.0 19.0 0.00 0.60 0.53 83 1011.3
20260503010007 56 30 12.0 19.0 0.00 0.60 0.53 83 1011.3
20260503005504 55 33 12.0 17.0 0.00 0.60 0.53 82 1011.4
20260503005004 55 46 12.0 17.0 0.00 0.60 0.53 83 1011.3
20260503004502 55 13 12.0 17.0 0.00 0.60 0.53 83 1011.3
20260503004002 55 35 11.0 17.0 0.00 0.60 0.53 84 1011.2
20260503003501 55 15 11.0 16.0 0.00 0.60 0.53 85 1011.1
20260503003002 55 34 10.0 16.0 0.00 0.61 0.53 85 1011.1
20260503002502 55 35 9.0 15.0 0.00 0.61 0.53 86 1011.1
20260503002002 55 2 9.0 14.0 0.00 0.61 0.53 86 1011.0
20260503001501 55 8 8.0 13.0 0.00 0.61 0.53 86 1011.1
20260503001001 55 37 8.0 11.0 0.00 0.61 0.53 86 1011.2
20260503000501 55 348 8.0 11.0 0.00 0.61 0.53 86 1011.0
20260503000001 55 23 8.0 13.0 0.00 0.61 0.53 86 1011.0
20260502235502 54 11 9.0 13.0 0.00 0.61 0.53 86 1010.9
20260502235002 54 40 9.0 12.0 0.00 0.61 0.53 86 1010.7
20260502234501 54 4 9.0 12.0 0.00 0.61 0.53 87 1010.8
20260502234002 54 58 9.0 14.0 0.00 0.61 0.53 87 1010.7
20260502233502 54 44 10.0 14.0 0.00 0.61 0.53 86 1010.7
20260502233002 54 46 9.0 13.0 0.00 0.61 0.53 87 1010.4
20260502232504 54 59 10.0 13.0 0.00 0.61 0.53 87 1010.5
20260502232001 54 69 10.0 13.0 0.00 0.61 0.53 87 1010.4
20260502231716 54 18 10.0 14.0 0.00 0.61 0.53 88 1010.5
20260502231001 54 33 10.0 14.0 0.00 0.61 0.53 87 1010.4
20260502230502 54 46 10.0 14.0 0.00 0.61 0.53 87 1010.5
20260502230003 54 54 9.0 14.0 0.00 0.61 0.53 88 1010.5
20260502225501 54 48 10.0 14.0 0.00 0.61 0.53 88 1010.6
20260502225001 54 46 10.0 14.0 0.00 0.61 0.53 88 1010.6
20260502224502 54 60 10.0 16.0 0.00 0.61 0.53 87 1010.5
20260502224214 54 13 10.0 16.0 0.00 0.61 0.53 87 1010.4
20260502223504 54 46 10.0 14.0 0.00 0.61 0.53 88 1010.5
20260502223005 54 52 11.0 18.0 0.00 0.61 0.53 88 1010.6
20260502222455 53 75 11.0 18.0 0.00 0.61 0.53 87 1010.6
20260502221951 53 58 11.0 18.0 0.00 0.61 0.53 88 1010.7
20260502221658 53 34 12.0 18.0 0.00 0.61 0.53 89 1010.8
20260502220938 53 56 12.0 16.0 0.00 0.61 0.53 90 1010.9
20260502220649 53 46 12.0 16.0 0.01 0.61 0.53 90 1010.9
20260502215931 53 11 11.0 15.0 0.01 0.61 0.53 90 1010.8
20260502215431 53 81 11.0 16.0 0.01 0.61 0.53 89 1010.9
20260502214931 53 52 12.0 17.0 0.01 0.61 0.53 89 1010.8
20260502214431 53 67 12.0 18.0 0.01 0.61 0.53 89 1010.9
20260502213931 53 56 12.0 18.0 0.01 0.61 0.53 89 1010.9
20260502213431 53 47 12.0 17.0 0.01 0.61 0.53 89 1010.8
20260502212934 53 54 12.0 17.0 0.01 0.61 0.53 89 1010.9
20260502212436 53 44 12.0 17.0 0.01 0.61 0.53 90 1010.7
20260502211934 53 41 12.0 17.0 0.01 0.61 0.53 89 1010.6
20260502211433 53 55 12.0 17.0 0.01 0.61 0.53 90 1010.4
20260502211142 53 78 12.0 16.0 0.01 0.61 0.53 90 1010.5
20260502210433 53 18 12.0 17.0 0.01 0.60 0.52 90 1010.6
20260502205932 53 63 12.0 17.0 0.01 0.60 0.52 90 1010.5
20260502205903 53 73 11.0 16.0 0.01 0.60 0.52 90 1010.4
20260502205701 53 73 11.0 16.0 0.01 0.60 0.52 90 1010.4
20260502204931 53 61 12.0 15.0 0.01 0.60 0.52 89 1010.6
20260502204431 53 72 13.0 18.0 0.01 0.60 0.52 88 1010.8
20260502204145 53 46 13.0 18.0 0.01 0.60 0.52 88 1010.6
20260502203431 53 61 12.0 17.0 0.01 0.60 0.52 89 1010.4
20260502203145 53 57 12.0 17.0 0.01 0.60 0.52 89 1010.4
20260502202431 53 61 12.0 17.0 0.01 0.60 0.52 89 1010.7
20260502201932 53 57 12.0 19.0 0.01 0.60 0.52 90 1010.5
20260502201429 53 36 13.0 19.0 0.01 0.60 0.52 89 1010.2
20260502200930 53 70 12.0 18.0 0.01 0.60 0.52 90 1010.0